Location: Balsareny
(41.8670°N, 1.8830°E)
Time: 01:09:35
(UTC+02:00)

X-37B - Pass Details

Date: 20 June 2021
Orbit: 383 x 392 km, 45.0° (Epoch: 01 July)

Event Time Altitude Azimuth Distance (km) Brightness Sun altitude
Exits shadow 04:01:00 15° 295° (WNW) 1,144 2.9 -18.4°
Maximum altitude 04:03:26 52° 10° (N) 485 1.4 -18.2°
Drops below altitude 10° 04:06:32 10° 88° (E) 1,406 3.8 -17.9°
Sets 04:08:38 0° 93° (E) 2,260 4.9 -17.7°
